TimeEDT,TemperatureF,Dew PointF,Humidity,Sea Level PressureIn,VisibilityMPH,Wind Direction,Wind SpeedMPH,Gust SpeedMPH,PrecipitationIn,Events,Conditions,WindDirDegrees,DateUTC
12:15 AM,41.0,37.4,87,29.89,10.0,Calm,Calm,-,N/A,,Clear,0,2013-09-25 04:15:00
12:35 AM,41.0,35.6,81,29.89,10.0,WSW,3.5,-,N/A,,Clear,240,2013-09-25 04:35:00
12:55 AM,39.2,35.6,87,29.89,10.0,Calm,Calm,-,N/A,,Clear,0,2013-09-25 04:55:00
1:15 AM,39.2,35.6,87,29.89,10.0,Calm,Calm,-,N/A,,Clear,0,2013-09-25 05:15:00
1:35 AM,39.2,35.6,87,29.89,10.0,Calm,Calm,-,N/A,,Clear,0,2013-09-25 05:35:00
1:55 AM,39.2,33.8,81,29.89,10.0,Calm,Calm,-,N/A,,Clear,0,2013-09-25 05:55:00
2:35 AM,37.4,33.8,87,29.88,10.0,WSW,4.6,-,N/A,,Clear,240,2013-09-25 06:35:00
2:55 AM,37.4,33.8,87,29.88,10.0,Calm,Calm,-,N/A,,Scattered Clouds,0,2013-09-25 06:55:00
3:15 AM,37.4,33.8,87,29.87,10.0,Calm,Calm,-,N/A,,Scattered Clouds,0,2013-09-25 07:15:00
3:35 AM,37.4,35.6,93,29.87,10.0,WSW,3.5,-,N/A,,Clear,250,2013-09-25 07:35:00
3:55 AM,37.4,33.8,87,29.87,10.0,Calm,Calm,-,N/A,,Clear,0,2013-09-25 07:55:00
4:35 AM,37.4,32.0,81,29.87,10.0,Calm,Calm,-,N/A,,Clear,0,2013-09-25 08:35:00
4:55 AM,35.6,30.2,81,29.87,10.0,Calm,Calm,-,N/A,,Clear,0,2013-09-25 08:55:00
5:15 AM,35.6,32.0,87,29.87,10.0,Calm,Calm,-,N/A,,Clear,0,2013-09-25 09:15:00
5:35 AM,37.4,32.0,81,29.87,10.0,Calm,Calm,-,N/A,,Clear,0,2013-09-25 09:35:00
5:55 AM,35.6,30.2,81,29.87,10.0,WSW,3.5,-,N/A,,Clear,240,2013-09-25 09:55:00
6:15 AM,35.6,32.0,87,29.88,10.0,Calm,Calm,-,N/A,,Clear,0,2013-09-25 10:15:00
6:35 AM,35.6,33.8,93,29.89,10.0,Calm,Calm,-,N/A,,Clear,0,2013-09-25 10:35:00
6:55 AM,35.6,30.2,81,29.89,10.0,Calm,Calm,-,N/A,,Clear,0,2013-09-25 10:55:00
7:15 AM,37.4,33.8,87,29.89,10.0,WSW,3.5,-,N/A,,Clear,240,2013-09-25 11:15:00
7:35 AM,42.8,35.6,76,29.89,10.0,WSW,4.6,-,N/A,,Clear,250,2013-09-25 11:35:00
7:55 AM,46.4,39.2,76,29.90,10.0,Calm,Calm,-,N/A,,Clear,0,2013-09-25 11:55:00
8:15 AM,48.2,41.0,76,29.90,10.0,North,5.8,-,N/A,,Clear,360,2013-09-25 12:15:00
8:35 AM,50.0,41.0,71,29.90,10.0,North,4.6,-,N/A,,Clear,10,2013-09-25 12:35:00
8:55 AM,53.6,42.8,67,29.90,10.0,North,9.2,-,N/A,,Clear,360,2013-09-25 12:55:00
9:15 AM,53.6,42.8,67,29.91,10.0,North,9.2,-,N/A,,Partly Cloudy,10,2013-09-25 13:15:00
9:35 AM,55.4,42.8,63,29.91,10.0,North,9.2,-,N/A,,Mostly Cloudy,360,2013-09-25 13:35:00
9:55 AM,55.4,42.8,63,29.91,10.0,North,10.4,-,N/A,,Overcast,360,2013-09-25 13:55:00
10:15 AM,55.4,42.8,63,29.91,10.0,North,5.8,-,N/A,,Overcast,360,2013-09-25 14:15:00
10:35 AM,57.2,42.8,59,29.92,10.0,NNW,9.2,-,N/A,,Overcast,340,2013-09-25 14:35:00
10:55 AM,57.2,42.8,59,29.91,10.0,NNW,10.4,-,N/A,,Overcast,330,2013-09-25 14:55:00
11:15 AM,57.2,42.8,59,29.92,10.0,North,10.4,-,N/A,,Overcast,360,2013-09-25 15:15:00
11:35 AM,59.0,42.8,55,29.92,10.0,NW,6.9,-,N/A,,Overcast,320,2013-09-25 15:35:00
11:55 AM,59.0,42.8,55,29.91,10.0,NNW,6.9,-,N/A,,Overcast,330,2013-09-25 15:55:00
12:15 PM,60.8,42.8,52,29.91,10.0,NNW,5.8,-,N/A,,Overcast,330,2013-09-25 16:15:00
12:35 PM,59.0,42.8,55,29.92,10.0,North,6.9,-,N/A,,Overcast,360,2013-09-25 16:35:00
12:55 PM,59.0,42.8,55,29.91,5.0,NW,5.8,-,N/A,,Overcast,320,2013-09-25 16:55:00
1:35 PM,59.0,42.8,55,29.90,10.0,North,8.1,-,N/A,,Overcast,360,2013-09-25 17:35:00
1:55 PM,59.0,42.8,55,29.90,10.0,North,5.8,-,N/A,,Overcast,10,2013-09-25 17:55:00
2:15 PM,59.0,42.8,55,29.90,10.0,North,6.9,-,N/A,,Overcast,360,2013-09-25 18:15:00
2:35 PM,60.8,44.6,55,29.90,10.0,North,8.1,-,N/A,,Overcast,360,2013-09-25 18:35:00
2:55 PM,60.8,44.6,55,29.90,10.0,NNW,8.1,-,N/A,,Overcast,340,2013-09-25 18:55:00
3:15 PM,59.0,44.6,59,29.90,10.0,NNW,6.9,-,N/A,,Overcast,340,2013-09-25 19:15:00
3:35 PM,59.0,44.6,59,29.90,10.0,North,8.1,-,N/A,,Overcast,360,2013-09-25 19:35:00
3:55 PM,59.0,44.6,59,29.90,10.0,North,4.6,-,N/A,,Overcast,360,2013-09-25 19:55:00
4:35 PM,60.8,44.6,55,29.90,10.0,North,11.5,-,N/A,,Overcast,360,2013-09-25 20:35:00
4:55 PM,60.8,42.8,52,29.91,10.0,North,9.2,-,N/A,,Overcast,360,2013-09-25 20:55:00
5:15 PM,59.0,44.6,59,29.91,10.0,North,6.9,-,N/A,,Overcast,360,2013-09-25 21:15:00
5:35 PM,59.0,44.6,59,29.91,10.0,North,9.2,-,N/A,,Overcast,360,2013-09-25 21:35:00
5:55 PM,57.2,44.6,63,29.92,10.0,North,8.1,-,N/A,,Overcast,360,2013-09-25 21:55:00
6:15 PM,57.2,44.6,63,29.92,10.0,North,8.1,-,N/A,,Mostly Cloudy,10,2013-09-25 22:15:00
6:35 PM,55.4,44.6,67,29.93,10.0,Calm,Calm,-,N/A,,Overcast,0,2013-09-25 22:35:00
6:55 PM,55.4,44.6,67,29.93,10.0,WNW,3.5,-,N/A,,Overcast,290,2013-09-25 22:55:00
7:15 PM,55.4,44.6,67,29.94,10.0,NNW,4.6,-,N/A,,Overcast,340,2013-09-25 23:15:00
7:35 PM,55.4,44.6,67,29.94,10.0,North,5.8,-,N/A,,Overcast,360,2013-09-25 23:35:00
7:55 PM,55.4,44.6,67,29.95,10.0,NNW,5.8,-,N/A,,Mostly Cloudy,340,2013-09-25 23:55:00
8:15 PM,53.6,42.8,67,29.95,10.0,NW,4.6,-,N/A,,Partly Cloudy,320,2013-09-26 00:15:00
8:35 PM,53.6,42.8,67,29.96,10.0,NNW,4.6,-,N/A,,Clear,330,2013-09-26 00:35:00
8:55 PM,51.8,42.8,71,29.96,10.0,NNW,4.6,-,N/A,,Clear,330,2013-09-26 00:55:00
9:15 PM,46.4,39.2,76,29.97,10.0,Calm,Calm,-,N/A,,Clear,0,2013-09-26 01:15:00
9:35 PM,42.8,37.4,81,29.97,10.0,WNW,3.5,-,N/A,,Clear,290,2013-09-26 01:35:00
9:55 PM,44.6,39.2,81,29.98,10.0,Calm,Calm,-,N/A,,Mostly Cloudy,0,2013-09-26 01:55:00
10:15 PM,44.6,39.2,81,29.98,10.0,Calm,Calm,-,N/A,,Overcast,0,2013-09-26 02:15:00
10:35 PM,46.4,42.8,87,29.98,10.0,NNW,4.6,-,N/A,,Overcast,330,2013-09-26 02:35:00
10:55 PM,50.0,42.8,76,29.99,10.0,Calm,Calm,-,N/A,,Overcast,0,2013-09-26 02:55:00
11:15 PM,48.2,42.8,82,29.99,10.0,North,3.5,-,N/A,,Overcast,360,2013-09-26 03:15:00
11:35 PM,48.2,42.8,82,29.99,10.0,Calm,Calm,-,N/A,,Overcast,0,2013-09-26 03:35:00
11:55 PM,50.0,44.6,82,29.99,10.0,WSW,3.5,-,N/A,,Overcast,250,2013-09-26 03:55:00